Regional Weather Roundup
Issued by NWS

Home | Current Version | Previous Version | Text Only | Print | Product List | Glossary On
Versions: 1 2 3 4 5 6 7 8 9 10 11 12 13 14 15 16 17 18 19 20 21 22 23 24 25 26 27
000
ASUS46 KSEW 131810
RWRWA

WASHINGTON REGIONAL WEATHER ROUNDUP
NATIONAL WEATHER SERVICE SEATTLE WA
1000 AM PST WED DEC 13 2017

NOTE:"FAIR" INDICATES FEW OR NO CLOUDS BELOW 12,000 FEET WITH NO
SIGNIFICANT WEATHER AND/OR OBSTRUCTIONS TO VISIBILITY.

WAZ507-509-555>559-131900-
SEATTLE, TACOMA, EVERETT, AND VICINITY

CITY           SKY/WX    TMP DP  RH WIND       PRES   REMARKS
EVERETT        SUNNY     40  38  93 SW3       30.44S
6HR MIN TEMP:  37; 6HR MAX TEMP:  40;

BOEING FIELD   PTSUNNY   44  37  76 VRB3      30.45F
6HR MIN TEMP:  34; 6HR MAX TEMP:  44;

RENTON         SUNNY     38  33  82 CALM      30.45S
6HR MIN TEMP:  31; 6HR MAX TEMP:  38;

SEATAC AIRPORT MOSUNNY   42  34  73 N8        30.43S
6HR MIN TEMP:  34; 6HR MAX TEMP:  43;

JBLM-MCCHORD   SUNNY     36  36 100 CALM      30.44S
6HR MIN TEMP:  26; 6HR MAX TEMP:  36;

PUYALLUP       FAIR      37  37 100 CALM      30.43S
BREMERTON      PTSUNNY   41  41 100 NE10      30.42F FOG
6HR MIN TEMP:  28; 6HR MAX TEMP:  41;

JBLM-FT LEWIS  SUNNY     35  35 100 CALM      30.43S
6HR MIN TEMP:  27; 6HR MAX TEMP:  35;

TACOMA NARROWS MOSUNNY   43  38  82 N8G16     30.44R
6HR MIN TEMP:  34; 6HR MAX TEMP:  43;

$$

WAZ001-503-506-510-514-515-131900-
NORTH INTERIOR

CITY           SKY/WX    TMP DP  RH WIND       PRES   REMARKS
BELLINGHAM     SUNNY     41  36  82 NE5       30.44R
6HR MIN TEMP:  30; 6HR MAX TEMP:  41;

FRIDAY HARBOR  MOSUNNY   44  41  89 VRB5      30.46F
6HR MIN TEMP:  36; 6HR MAX TEMP:  45;

EASTSOUND      PTSUNNY   45  43  93 N6        30.46F
PORT ANGELES   PTSUNNY   44  40  85 E3        30.45F
6HR MIN TEMP:  32; 6HR MAX TEMP:  44;

EDIZ HOOK      FAIR      46  40  80 NE7       30.46F
6HR MIN TEMP:  42; 6HR MAX TEMP:  48;

PORT TOWNSEND  FAIR      48  39  71 NW6G14    30.45F
NAS WHIDBEY    NOT AVBL
ARLINGTON      SUNNY     35  33  92 CALM      30.45F
6HR MIN TEMP:  25; 6HR MAX TEMP:  35;

BURLINGTON     SUNNY     37  37 100 CALM      30.45S
$$

WAZ020-022-039-040-504-511-512-131900-
SOUTHWEST INTERIOR

CITY           SKY/WX    TMP DP  RH WIND       PRES   REMARKS
SHELTON        CLOUDY    37  36  96 SE3       30.41F FOG
6HR MIN TEMP:  28; 6HR MAX TEMP:  37;

OLYMPIA        MOSUNNY   33  33 100 CALM      30.44S
6HR MIN TEMP:  26; 6HR MAX TEMP:  33;

CHEHALIS       FAIR      36  36 100 CALM      30.42F
KELSO          MOSUNNY   39  34  82 CALM      30.43S
6HR MIN TEMP:  27; 6HR MAX TEMP:  39;

VANCOUVER      SUNNY     38  31  76 CALM      30.42S
6HR MIN TEMP:  26; 6HR MAX TEMP:  38;

SCAPPOOSE, OR  SUNNY     34  31  88 CALM      30.42S
6HR MIN TEMP:  25; 6HR MAX TEMP:  34;

PORTLAND, OR   MOSUNNY   38  30  73 W3        30.42S
6HR MIN TEMP:  29; 6HR MAX TEMP:  38;

$$

WAZ021-516-517-131900-
WASHINGTON COAST

CITY           SKY/WX    TMP DP  RH WIND       PRES   REMARKS
FORKS          FOG       37  37 100 S5        30.40R VSB 3/4
6HR MIN TEMP:  33; 6HR MAX TEMP:  37;

HOQUIAM        MOSUNNY   41  39  93 E8        30.40R
6HR MIN TEMP:  34; 6HR MAX TEMP:  43;

ASTORIA, OR    SUNNY     43  35  73 E6        30.36S
6HR MIN TEMP:  34; 6HR MAX TEMP:  43; 6HR PCP: TRACE;

$$

WAZ019-023-024-040-567>569-131900-
CASCADE MOUNTAINS AND COLUMBIA GORGE

CITY           SKY/WX    TMP DP  RH WIND       PRES   REMARKS
STAMPEDE PASS  FOG       21  19  92 N3        30.39R VSB 3/4
6HR MIN TEMP:  19; 6HR MAX TEMP:  21;

TROUTDALE, OR  SUNNY     39  26  59 E22G30    30.41S
6HR MIN TEMP:  36; 6HR MAX TEMP:  39;

HOOD RIVER, OR CLOUDY    32  27  80 E5        30.60R
THE DALLES, OR CLOUDY    35  27  72 CALM      30.62R
6HR MIN TEMP:  33; 6HR MAX TEMP:  35;

$$

WAZ026-027-041>044-520-521-131900-
EAST SLOPES

CITY           SKY/WX    TMP DP  RH WIND       PRES   REMARKS
OMAK           CLOUDY    30  27  88 CALM      30.56R
6HR MIN TEMP:  26; 6HR MAX TEMP:  30;

WENATCHEE      MOSUNNY   29  23  78 NW7       30.56S
6HR MIN TEMP:  25; 6HR MAX TEMP:  29;

ELLENSBURG     CLOUDY    30  24  78 MISG      30.53S
6HR MIN TEMP:  29; 6HR MAX TEMP:  30;

YAKIMA         NOT AVBL
SUNNYSIDE ARPT CLOUDY    30  27  87 W5        30.60R FOG
6HR MIN TEMP:  29; 6HR MAX TEMP:  30;

YAKIMA TC      CLOUDY    30  24  79 CALM      30.54R
6HR MIN TEMP:  28; 6HR MAX TEMP:  30;

$$

WAZ028-034-035-131900-
COLUMBIA BASIN

CITY           SKY/WX    TMP DP  RH WIND       PRES   REMARKS
EPHRATA        PTSUNNY   31  21  66 NW7       30.56R
6HR MIN TEMP:  28; 6HR MAX TEMP:  31;

MOSES LAKE     CLOUDY    30  24  78 W8        30.57R
6HR MIN TEMP:  29; 6HR MAX TEMP:  30;

PASCO          CLOUDY    32  29  88 NW3       30.62R
6HR MIN TEMP:  31; 6HR MAX TEMP:  32; 6HR PCP: TRACE;

RICHLAND ARPT  CLOUDY    33  30  88 CALM      30.62S
6HR MIN TEMP:  32; 6HR MAX TEMP:  33;

HERMISTON, OR  CLOUDY    31  29  92 SW3       30.60R
6HR MIN TEMP:  30; 6HR MAX TEMP:  31;

$$

WAZ036>038-131900-
NORTHEAST WASHINGTON

CITY           SKY/WX    TMP DP  RH WIND       PRES   REMARKS
SPOKANE GEIGER PTSUNNY   27  24  89 CALM      30.46S
6HR MIN TEMP:  25; 6HR MAX TEMP:  27; 6HR PCP: TRACE;

SPOKANE FELTS  CLOUDY    29  25  85 CALM      30.49S
6HR MIN TEMP:  27; 6HR MAX TEMP:  29; 6HR PCP: TRACE;

FAIRCHILD AFB  CLOUDY    26  26  99 CALM      30.44S
6HR MIN TEMP:  24; 6HR MAX TEMP:  26;

COEURDALENE,ID CLOUDY    29  26  89 E3        30.47S
6HR MIN TEMP:  26; 6HR MAX TEMP:  29; 6HR PCP: TRACE;

DEER PARK      CLOUDY    28  24  85 CALM      30.48R
6HR MIN TEMP:  25; 6HR MAX TEMP:  28; 6HR PCP:  0.01;

$$

WAZ029>033-131900-
SOUTHEAST WASHINGTON

CITY           SKY/WX    TMP DP  RH WIND       PRES   REMARKS
PULLMAN        CLOUDY    27  24  89 CALM      30.47F FOG
6HR MIN TEMP:  25; 6HR MAX TEMP:  27;

LEWISTON, ID   CLOUDY    30  27  88 S5        30.52S
6HR MIN TEMP:  28; 6HR MAX TEMP:  30; 6HR PCP:  0.01;

WALLA WALLA    CLOUDY    30  26  85 CALM      30.55R
6HR MIN TEMP:  27; 6HR MAX TEMP:  30; 6HR PCP:  0.01;

PENDLETON, OR  CLOUDY    29  25  85 N6        30.54R
6HR MIN TEMP:  27; 6HR MAX TEMP:  29;

$$




USA.gov is the U.S. government's official web portal to all federal, state and local government web resources and services.